Weather History for Indianapolis, IN

Change the Weather History Date:

Tuesday, February 21, 2012

  Actual Average (KEYE) Record (KEYE)
Temperature  
Mean Temperature 40 °F 34 °F  
Max Temperature 45 °F 42 °F 64 °F (1997)
Min Temperature 35 °F 25 °F 9 °F (2008)
Degree Days  
Heating Degree Days 25 31  
Month to date heating degree days 714  
Since 1 July heating degree days 3915  
Cooling Degree Days 0 0  
Month to date cooling degree days 0  
Year to date cooling degree days 0  
Moisture  
Dew Point 35 °F    
Average Humidity 82    
Maximum Humidity 93    
Minimum Humidity 62    
Precipitation  
Precipitation 0.05 in 0.08 in 1.20 in (2011)
Month to date precipitation 1.56  
Year to date precipitation 3.77  
Sea Level Pressure  
Sea Level Pressure 29.80 in    
Wind  
Wind Speed 14 mph (SSW)    
Max Wind Speed 21 mph    
Max Gust Speed 30 mph    
Visibility 9 miles    
Events Rain    
T = Trace of Precipitation, MM = Missing Value Source: NWS Daily Summary

Daily Weather History Graph

Daily Weather History Graph

Search for Another Location

Airport:

Trip Planner

Search our weather history database for the weather conditions in past years. The results will help you decide how hot, cold, wet, or windy it might be!

Date:

Astronomy

Feb. 21, 2012 Rise Set
Actual Time 7:30 AM EST 6:27 PM EST
Civil Twilight 7:03 AM EST 6:54 PM EST
Nautical Twilight 6:31 AM EST 7:26 PM EST
Astronomical Twilight 6:00 AM EST 7:57 PM EST
Moon 6:59 AM EST (2/21) 6:33 PM EST (2/21)
Length of Visible Light 11h 51m
Length of Day
10h 56m
Waning Crescent, 0% of the Moon is Illuminated
Feb 21
Waning Crescent
Feb 21
New
Feb 29
First Quarter
Mar 8
Full
Mar 14
Last Quarter

Hourly Weather History & Observations

Time (EST) Temp. Windchill Dew Point Humidity Pressure Visibility Wind Dir Wind Speed Gust Speed Precip Events Conditions
12:15 AM 37.4 °F 29.3 °F 25.3 °F 62% 29.96 in 10.0 mi SE 12.7 mph - N/A   Clear
12:35 AM 37.0 °F 28.5 °F 26.1 °F 65% 29.96 in 10.0 mi SSE 13.8 mph - N/A   Clear
12:55 AM 36.9 °F 28.2 °F 26.4 °F 66% 29.97 in 10.0 mi SSE 13.8 mph 18.4 mph N/A   Clear
1:15 AM 37.4 °F 28.9 °F 26.4 °F 65% 29.96 in 10.0 mi SSE 13.8 mph - N/A   Clear
1:35 AM 37.4 °F 29.3 °F 26.6 °F 65% 29.95 in 10.0 mi SSE 12.7 mph - N/A   Clear
1:55 AM 37.2 °F 27.9 °F 26.6 °F 65% 29.93 in 10.0 mi SSE 16.1 mph 20.7 mph N/A   Clear
2:15 AM 37.4 °F 29.3 °F 26.4 °F 65% 29.92 in 10.0 mi SSE 12.7 mph 18.4 mph N/A   Clear
2:35 AM 36.9 °F 28.7 °F 26.4 °F 66% 29.92 in 10.0 mi SSE 12.7 mph - N/A   Clear
2:55 AM 37.0 °F 28.5 °F 27.0 °F 67% 29.91 in 10.0 mi SSE 13.8 mph 19.6 mph N/A   Scattered Clouds
3:15 AM 36.9 °F 27.8 °F 27.1 °F 68% 29.88 in 10.0 mi SSE 15.0 mph - N/A   Overcast
3:35 AM 37.0 °F 28.5 °F 27.3 °F 68% 29.85 in 10.0 mi SE 13.8 mph 21.9 mph N/A   Overcast
3:55 AM 36.7 °F 27.6 °F 27.7 °F 70% 29.82 in 10.0 mi SSE 15.0 mph 20.7 mph N/A   Overcast
4:15 AM 36.5 °F 27.4 °F 28.2 °F 72% 29.80 in 10.0 mi SSE 15.0 mph 19.6 mph N/A   Mostly Cloudy
4:35 AM 36.5 °F 28.2 °F 28.4 °F 72% 29.79 in 10.0 mi SSE 12.7 mph 18.4 mph N/A   Overcast
4:55 AM 36.9 °F 27.8 °F 28.9 °F 73% 29.77 in 10.0 mi SSE 15.0 mph 23.0 mph N/A   Overcast
5:15 AM 37.4 °F 28.5 °F 29.3 °F 73% 29.76 in 10.0 mi SSE 15.0 mph 21.9 mph N/A   Overcast
5:35 AM 37.4 °F 28.5 °F 30.4 °F 76% 29.76 in 10.0 mi South 15.0 mph 23.0 mph N/A Rain Light Rain
5:55 AM 36.0 °F 27.5 °F 32.0 °F 86% 29.74 in 5.0 mi South 12.7 mph - 0.02 in Rain Light Rain
6:15 AM 35.8 °F 28.3 °F 32.5 °F 88% 29.74 in 7.0 mi South 10.4 mph 18.4 mph N/A   Drizzle
6:35 AM 35.8 °F 27.3 °F 33.1 °F 90% 29.74 in 7.0 mi South 12.7 mph 17.3 mph N/A   Drizzle
7:15 AM 36.9 °F 28.7 °F 34.7 °F 92% 29.72 in 10.0 mi South 12.7 mph - N/A   Overcast
7:35 AM 37.8 °F 29.8 °F 35.6 °F 92% 29.71 in 10.0 mi South 12.7 mph - N/A   Overcast
7:55 AM 38.3 °F 30.9 °F 36.0 °F 91% 29.71 in 5.0 mi South 11.5 mph - 0.01 in Rain Light Rain
8:15 AM 38.8 °F 31.6 °F 36.7 °F 92% 29.71 in 5.0 mi South 11.5 mph - 0.01 in Rain Light Rain
8:35 AM 39.4 °F 31.8 °F 37.4 °F 93% 29.72 in 5.0 mi South 12.7 mph 20.7 mph 0.02 in Rain Light Rain
8:55 AM 40.1 °F 31.6 °F 38.1 °F 93% 29.73 in 5.0 mi SSW 16.1 mph 20.7 mph 0.02 in Rain Light Rain
9:35 AM 41.5 °F 33.8 °F 39.2 °F 91% 29.73 in 10.0 mi SW 15.0 mph 20.7 mph N/A   Drizzle
9:55 AM 41.9 °F 33.7 °F 39.2 °F 90% 29.74 in 10.0 mi SW 17.3 mph 24.2 mph N/A   Overcast
10:15 AM 42.1 °F 34.5 °F 38.8 °F 88% 29.74 in 10.0 mi WSW 15.0 mph 20.7 mph N/A   Overcast
10:35 AM 42.3 °F 34.1 °F 39.2 °F 89% 29.74 in 10.0 mi WSW 17.3 mph 20.7 mph N/A   Overcast
10:55 AM 42.8 °F 34.3 °F 39.2 °F 87% 29.75 in 10.0 mi WSW 19.6 mph 26.5 mph N/A   Overcast
11:15 AM 43.2 °F 35.0 °F 39.4 °F 86% 29.76 in 10.0 mi WSW 18.4 mph - N/A   Overcast
11:35 AM 43.7 °F 35.2 °F 39.4 °F 85% 29.76 in 10.0 mi WSW 20.7 mph 27.6 mph N/A   Overcast
11:55 AM 43.7 °F 35.7 °F 39.2 °F 84% 29.77 in 10.0 mi WSW 18.4 mph 29.9 mph N/A   Overcast
12:15 PM 43.7 °F 36.9 °F 39.2 °F 84% 29.77 in 10.0 mi WSW 13.8 mph 25.3 mph N/A   Overcast
12:35 PM 43.7 °F 36.6 °F 39.2 °F 84% 29.77 in 10.0 mi WSW 15.0 mph 21.9 mph N/A   Overcast
12:55 PM 43.7 °F 35.7 °F 39.6 °F 85% 29.76 in 10.0 mi SW 18.4 mph 21.9 mph N/A   Overcast
1:15 PM 44.1 °F 36.8 °F 39.4 °F 84% 29.76 in 10.0 mi SW 16.1 mph 21.9 mph N/A   Overcast
1:35 PM 44.2 °F 36.2 °F 38.5 °F 80% 29.76 in 10.0 mi WSW 19.6 mph 28.8 mph N/A   Overcast
1:55 PM 45.0 °F 37.9 °F 38.5 °F 78% 29.76 in 10.0 mi WSW 16.1 mph 28.8 mph N/A   Overcast
2:15 PM 44.6 °F 37.4 °F 38.3 °F 79% 29.76 in 10.0 mi SW 16.1 mph 21.9 mph N/A   Overcast
2:35 PM 45.0 °F 37.6 °F 38.7 °F 79% 29.76 in 10.0 mi SW 17.3 mph 23.0 mph N/A   Overcast
2:55 PM 44.8 °F 37.7 °F 39.0 °F 80% 29.76 in 10.0 mi SW 16.1 mph - N/A   Overcast
3:15 PM 44.8 °F 38.0 °F 38.8 °F 80% 29.76 in 10.0 mi SW 15.0 mph - N/A   Overcast
3:35 PM 44.6 °F 37.4 °F 38.8 °F 80% 29.77 in 10.0 mi WSW 16.1 mph 26.5 mph N/A   Overcast
3:55 PM 44.8 °F 37.7 °F 39.2 °F 81% 29.77 in 10.0 mi WSW 16.1 mph 27.6 mph N/A   Overcast
4:15 PM 44.1 °F 37.1 °F 39.6 °F 84% 29.76 in 7.0 mi SW 15.0 mph 21.9 mph N/A   Overcast
4:35 PM 44.1 °F 37.1 °F 39.7 °F 85% 29.77 in 5.0 mi SW 15.0 mph 27.6 mph N/A   Overcast
4:55 PM 43.2 °F 35.9 °F 40.3 °F 90% 29.77 in 2.5 mi SW 15.0 mph 21.9 mph N/A   Light Drizzle
5:15 PM 43.0 °F 35.4 °F 40.5 °F 91% 29.77 in 2.5 mi WSW 16.1 mph 23.0 mph N/A   Drizzle
5:35 PM 42.8 °F 34.5 °F 40.6 °F 92% 29.79 in 1.5 mi WSW 18.4 mph 24.2 mph N/A   Drizzle
5:55 PM 42.8 °F 35.1 °F 40.8 °F 93% 29.79 in 2.5 mi WSW 16.1 mph 24.2 mph N/A   Light Drizzle
6:15 PM 42.8 °F 35.8 °F 40.6 °F 92% 29.80 in 7.0 mi WSW 13.8 mph 23.0 mph N/A   Overcast
6:35 PM 42.8 °F 35.1 °F 40.3 °F 91% 29.81 in 10.0 mi WSW 16.1 mph - N/A   Overcast
6:55 PM 42.1 °F 34.5 °F 39.6 °F 91% 29.81 in 10.0 mi WSW 15.0 mph 21.9 mph N/A   Mostly Cloudy
7:15 PM 42.1 °F 35.2 °F 39.2 °F 90% 29.82 in 10.0 mi SW 12.7 mph 18.4 mph N/A   Mostly Cloudy
8:15 PM 41.9 °F 35.0 °F 38.3 °F 87% 29.83 in 10.0 mi SW 12.7 mph - N/A   Overcast
8:35 PM 41.9 °F 35.0 °F 37.9 °F 86% 29.82 in 10.0 mi SW 12.7 mph - N/A   Overcast
8:55 PM 41.9 °F 34.6 °F 37.8 °F 85% 29.82 in 10.0 mi SW 13.8 mph 18.4 mph N/A   Overcast
9:15 PM 42.1 °F 34.9 °F 37.6 °F 84% 29.82 in 10.0 mi SW 13.8 mph 20.7 mph N/A   Overcast
9:35 PM 41.9 °F 34.3 °F 37.4 °F 84% 29.82 in 10.0 mi SW 15.0 mph 19.6 mph N/A   Mostly Cloudy
9:55 PM 41.9 °F 34.3 °F 37.0 °F 83% 29.82 in 10.0 mi SW 15.0 mph 19.6 mph N/A   Scattered Clouds
10:15 PM 41.7 °F 34.4 °F 36.3 °F 81% 29.82 in 10.0 mi SW 13.8 mph - N/A   Clear
10:35 PM 41.4 °F 34.3 °F 35.8 °F 81% 29.83 in 10.0 mi SW 12.7 mph 18.4 mph N/A   Scattered Clouds
10:55 PM 41.2 °F 34.1 °F 35.2 °F 79% 29.82 in 10.0 mi SW 12.7 mph - N/A   Scattered Clouds
11:15 PM 40.6 °F 34.3 °F 34.5 °F 79% 29.81 in 10.0 mi SW 10.4 mph - N/A   Scattered Clouds
11:35 PM 39.7 °F 33.7 °F 33.8 °F 79% 29.81 in 10.0 mi SW 9.2 mph - N/A   Scattered Clouds
11:55 PM 39.6 °F 33.0 °F 33.6 °F 79% 29.80 in 10.0 mi SW 10.4 mph - N/A   Clear